Location: Sternwarte Stuttgart
(48.7670°N, 9.1830°E)
Time: 01:47:52
(UTC+01:00)

SKYMED 3 - Pass Details

Date: 24 January 2019
Orbit: 621 x 623 km, 97.9° (Epoch: 16 February)

Event Time Altitude Azimuth Distance (km) Brightness Sun altitude
Rises 05:35:06 0° 169° (S) 2,892 8.2 -24.2°
Reaches altitude 10° 05:37:17 10° 171° (S) 1,990 7.3 -23.8°
Enters shadow 05:41:23 72° 226° (SW) 661 4.4 -23.2°
